#timestamp,LO_Frequency,Hit,StdDev 
1565175615.1,286047000.9,N
1565175635.9,286047000.3,N
1565175655.7,286047000.9,N
1565175675.5,286047000.9,N
1565175695.4,286046999.8,N
1565175715.2,286047000.6,N
1565175735.1,286047000.0,N
1565175736.0,286047000.0,N
1565175755.8,286047000.5,N
1565175775.6,286047002.6,N
1565175795.5,286047002.4,N
1565175815.3,286047000.8,N
1565175835.2,286047001.0,N
1565175855.9,286047001.1,N
1565175875.7,286047000.6,N
1565175895.6,286047000.6,N
1565175915.4,286047000.0,N
1565175935.2,286047002.5,N
1565175955.1,286047002.0,N
1565175956.0,286047002.0,N
1565175975.8,286047002.7,N
1565175995.7,286046999.9,N
1565176015.5,286047002.4,N
1565176035.3,286047002.6,N
1565176055.2,286047001.5,N
1565176075.0,286047001.5,N
1565176075.9,286047001.5,N
1565176095.8,286047001.9,N
1565176115.6,286047001.5,N
1565176135.4,286047001.6,N
1565176155.3,286047001.6,N
1565176175.1,286047002.2,N
1565176195.9,286047002.2,N
1565176215.7,286047002.8,Y
1565176235.5,286047001.0,P
1565176255.4,286047000.9,P
1565176275.2,286046998.6,P
1565176295.0,286047000.7,N
1565176296.0,286047000.7,N
1565176315.8,286046998.5,N
1565176335.6,286047000.7,N
1565176355.5,286047001.2,N
1565176375.3,286047000.0,N
1565176395.1,286047000.5,N
1565176415.9,286047001.1,N
1565176435.7,286047000.9,N
1565176455.6,286047000.2,N
1565176475.4,286047000.6,N
1565176495.2,286047000.9,N
1565176515.1,286047001.1,N
1565176516.0,286047001.1,N
1565176535.8,286046999.8,N
1565176555.7,286047000.6,N
1565176575.5,286047000.2,N
1565176595.3,286047000.2,N
1565176615.2,286047001.1,N
1565176635.0,286047000.8,N
1565176635.9,286047000.8,N
1565176655.7,286046998.2,N
1565176675.6,286047001.0,N
1565176695.4,286047001.2,N
1565176715.3,286047000.9,N
1565176735.1,286046998.8,N
1565176755.8,286046998.6,N
1565176775.7,286047001.0,N
1565176795.5,286047000.5,N
1565176815.4,286047002.7,Y
1565176835.2,286047000.9,P
1565176855.0,286047000.4,N
1565176855.9,286047000.4,N
1565176875.8,286046998.4,Y
1565176895.6,286046998.4,P
1565176915.5,286047000.7,N
1565176935.3,286047000.8,N
1565176955.1,286046999.7,N
1565176975.9,286047001.0,N
1565176995.7,286047000.7,N
1565177015.5,286046999.8,N
1565177065.4,286047001.0,E
1565177075.3,286046999.2,N
1565177095.2,286046996.9,P
1565177115.0,286046996.9,N
1565177115.9,286046996.9,N
1565177135.8,286046997.1,N
1565177155.6,286046996.6,Y
1565177175.4,286047000.7,P
1565177195.3,286047002.2,N
1565177215.1,286047001.5,N
1565177235.8,286047001.9,N
1565177255.7,286047001.6,N
1565177275.5,286047002.5,N
1565177295.4,286047002.6,N
1565177315.2,286047002.1,N
1565177335.0,286047002.2,N
1565177335.9,286047002.2,N
1565177355.8,286047002.3,N
1565177375.6,286047000.2,N
1565177395.5,286047001.4,N
1565177415.3,286047001.3,N
1565177435.1,286047001.6,N
1565177455.9,286047001.9,N
1565177475.7,286047003.7,Y
1565177495.6,286047002.3,P
1565177515.4,286047000.1,N
1565177535.2,286047002.4,N
1565177555.1,286047002.7,N
1565177556.0,286047002.7,N
1565177575.8,286047002.3,N
1565177595.6,286047002.4,N
1565177615.5,286047002.0,N
1565177635.3,286047001.5,N
1565177655.2,286047002.8,Y
1565177675.9,286046999.0,P
1565177695.7,286046998.3,N
1565177715.6,286046998.4,N
1565177735.4,286046999.4,N
1565177755.3,286046998.2,N
1565177775.1,286047001.1,N
1565177776.0,286047001.1,N
1565177795.8,286047000.9,N
1565177815.7,286046998.3,N
1565177835.5,286046998.4,N
1565177855.3,286046998.6,N
1565177875.2,286046998.2,N
1565177895.0,286046998.1,N
1565177895.9,286046998.1,N
1565177915.8,286046998.6,N
1565177935.6,286046998.8,N
1565177955.4,286046998.7,N
1565177975.3,286046998.6,N
1565177995.1,286046996.9,N
1565178015.9,286046996.8,N
1565178035.7,286046999.2,N
1565178055.5,286046998.9,N
1565178075.4,286046996.6,N
1565178095.2,286046997.5,N
1565178115.0,286046997.7,N
1565178116.0,286046997.7,N
1565178135.8,286046997.1,N
1565178155.6,286046996.5,N
1565178175.5,286046994.9,Y
1565178195.3,286046997.0,P
1565178215.1,286046998.0,N
1565178235.9,286046997.3,P
1565178255.7,286046997.9,Y
1565178275.6,286046998.3,P
1565178295.4,286047000.3,N
1565178315.2,286046999.9,N
1565178335.1,286046999.9,N
1565178336.0,286046999.9,N
1565178355.8,286047001.1,N
1565178375.7,286047000.8,N
1565178395.5,286046999.5,N
1565178415.3,286046999.2,N
1565178435.2,286046999.2,N
1565178455.0,286046996.7,Y
1565178455.9,286046996.7,P
1565178475.8,286046996.6,N
1565178495.6,286046996.8,N
1565178515.4,286046996.9,N
1565178535.3,286046996.7,N
1565178555.1,286046996.6,Y
1565178575.8,286047002.8,P
1565178595.7,286047002.8,N
1565178615.5,286047000.9,N
1565178635.4,286047000.5,N
1565178655.2,286047002.6,N
1565178675.0,286046999.7,N
1565178706.0,286047002.3,E
1565178715.9,286047000.3,N
1565178735.7,286046998.3,P
1565178755.6,286046998.8,N
1565178775.4,286046998.4,N
1565178795.2,286046998.7,N
1565178815.1,286046999.0,N
1565178816.0,286046999.0,N
1565178835.8,286046998.3,N
1565178855.7,286047000.8,N
1565178875.5,286047000.5,N
1565178895.3,286046998.5,N
1565178915.2,286046998.1,N
1565178935.0,286047000.8,N
1565178935.9,286047000.8,N
1565178955.8,286047001.0,N
1565178975.6,286047000.5,N
1565178995.4,286046999.9,N
1565179015.3,286047000.1,N
1565179035.1,286046998.1,N
1565179055.9,286046999.7,N
1565179075.7,286047000.1,N
1565179095.5,286047002.7,N
1565179115.4,286047002.8,N
1565179135.2,286047000.9,N
1565179155.1,286046998.1,N
1565179156.0,286046998.1,N
1565179175.8,286047001.2,N
1565179195.6,286047000.7,N
